UAL2859 KDEN-KEGE

Flight info

Callsign UAL2859
Flight time 0h 25m
Altitude 22000
Route ZIMMR4 ZIMMR CULCH
Aircraft A319/M-SDE3FGHIRWY/LB1

Departure

Time 2026-05-05 05:32
Airport Denver International Airport (KDEN)

Arrival

Time 2026-05-05 05:57
Airport Eagle County Regional Airport (KEGE)
Time Latitude Longitude Altitude Speed Heading
2026-05-05 05:10 39.85936 -104.67949 5380 ft 0 kts 180°
2026-05-05 05:25 39.85950 -104.67949 5375 ft 3 kts 180°
2026-05-05 05:26 39.85968 -104.67949 5377 ft 3 kts 180°
2026-05-05 05:26 39.85986 -104.67949 5375 ft 2 kts 180°
2026-05-05 05:26 39.86001 -104.67946 5377 ft 2 kts 173°
2026-05-05 05:26 39.86018 -104.67946 5376 ft 2 kts 235°
2026-05-05 05:27 39.86022 -104.67938 5377 ft 0 kts 264°
2026-05-05 05:28 39.86019 -104.67989 5376 ft 12 kts 265°
2026-05-05 05:28 39.86017 -104.68141 5380 ft 22 kts 272°
2026-05-05 05:29 39.86120 -104.68182 5372 ft 19 kts 11°
2026-05-05 05:29 39.86282 -104.68192 5372 ft 28 kts
2026-05-05 05:29 39.86419 -104.68259 5369 ft 20 kts 282°
2026-05-05 05:29 39.86428 -104.68500 5363 ft 34 kts 270°
2026-05-05 05:30 39.86432 -104.68703 5362 ft 19 kts 277°
2026-05-05 05:30 39.86476 -104.68728 5362 ft 9 kts 22°
2026-05-05 05:30 39.86548 -104.68718 5364 ft 0 kts
2026-05-05 05:31 39.86852 -104.68714 5363 ft 87 kts
2026-05-05 05:31 39.87730 -104.68702 5362 ft 162 kts
2026-05-05 05:32 39.88961 -104.68701 5924 ft 176 kts 358°
2026-05-05 05:32 39.90193 -104.68715 6708 ft 177 kts
2026-05-05 05:32 39.91413 -104.68748 7425 ft 172 kts 355°
2026-05-05 05:32 39.92423 -104.69320 8104 ft 148 kts 319°
2026-05-05 05:33 39.92874 -104.69986 8309 ft 148 kts 302°
2026-05-05 05:33 39.93154 -104.72018 7948 ft 202 kts 267°
2026-05-05 05:33 39.93126 -104.73282 8062 ft 213 kts 268°
2026-05-05 05:33 39.93123 -104.75988 8226 ft 238 kts 269°
2026-05-05 05:34 39.93129 -104.77475 8332 ft 249 kts 270°
2026-05-05 05:34 39.93143 -104.79840 8629 ft 272 kts 269°
2026-05-05 05:34 39.93159 -104.82383 9165 ft 287 kts 269°
2026-05-05 05:34 39.93175 -104.85014 9784 ft 294 kts 268°
2026-05-05 05:35 39.93189 -104.87676 9925 ft 293 kts 269°
2026-05-05 05:35 39.93204 -104.90345 10526 ft 294 kts 269°
2026-05-05 05:35 39.93239 -104.93001 11422 ft 293 kts 270°
2026-05-05 05:35 39.93300 -104.95640 12298 ft 291 kts 271°
2026-05-05 05:36 39.93370 -104.98279 13159 ft 291 kts 271°
2026-05-05 05:36 39.93439 -105.00912 14032 ft 291 kts 271°
2026-05-05 05:36 39.93507 -105.03560 14749 ft 294 kts 271°
2026-05-05 05:36 39.93574 -105.06230 15419 ft 296 kts 271°
2026-05-05 05:37 39.93639 -105.08926 16087 ft 299 kts 271°
2026-05-05 05:37 39.93702 -105.11648 16753 ft 302 kts 271°
2026-05-05 05:37 39.93761 -105.14398 17401 ft 305 kts 271°
2026-05-05 05:37 39.93819 -105.17179 18048 ft 309 kts 271°
2026-05-05 05:38 39.93878 -105.19988 18634 ft 312 kts 271°
2026-05-05 05:38 39.93951 -105.22822 19204 ft 314 kts 272°
2026-05-05 05:38 39.94116 -105.25666 19754 ft 316 kts 275°
2026-05-05 05:38 39.94343 -105.28522 20321 ft 318 kts 276°
2026-05-05 05:39 39.94593 -105.31397 20845 ft 321 kts 276°
2026-05-05 05:39 39.94848 -105.34297 21385 ft 323 kts 276°
2026-05-05 05:39 39.95097 -105.37222 21847 ft 327 kts 276°
2026-05-05 05:39 39.95341 -105.40182 21928 ft 333 kts 276°
2026-05-05 05:40 39.95588 -105.43252 21930 ft 338 kts 275°
2026-05-05 05:40 39.95824 -105.46268 21924 ft 340 kts 275°
2026-05-05 05:40 39.96063 -105.49372 21915 ft 340 kts 275°
2026-05-05 05:40 39.96300 -105.52437 21915 ft 340 kts 275°
2026-05-05 05:41 39.96537 -105.55501 21912 ft 340 kts 275°
2026-05-05 05:41 39.96784 -105.58568 21905 ft 340 kts 276°
2026-05-05 05:41 39.97028 -105.61635 21896 ft 340 kts 275°
2026-05-05 05:41 39.97245 -105.64699 21892 ft 340 kts 274°
2026-05-05 05:42 39.97406 -105.67773 21882 ft 340 kts 273°
2026-05-05 05:42 39.97535 -105.70849 21881 ft 340 kts 272°
2026-05-05 05:42 39.97647 -105.73937 21884 ft 341 kts 272°
2026-05-05 05:42 39.97758 -105.77024 21889 ft 341 kts 272°
2026-05-05 05:43 39.97869 -105.80107 21901 ft 341 kts 272°
2026-05-05 05:43 39.97984 -105.83191 21903 ft 341 kts 272°
2026-05-05 05:43 39.98101 -105.86275 21904 ft 340 kts 273°
2026-05-05 05:43 39.98221 -105.89359 21905 ft 340 kts 273°
2026-05-05 05:44 39.98344 -105.92439 21909 ft 340 kts 273°
2026-05-05 05:44 39.98466 -105.95525 21915 ft 340 kts 273°
2026-05-05 05:44 39.98587 -105.98606 21916 ft 340 kts 273°
2026-05-05 05:44 39.98710 -106.01688 21908 ft 341 kts 273°
2026-05-05 05:45 39.98832 -106.04776 21908 ft 341 kts 273°
2026-05-05 05:45 39.98949 -106.07866 21909 ft 342 kts 272°
2026-05-05 05:45 39.99064 -106.10965 21910 ft 342 kts 272°
2026-05-05 05:45 39.99179 -106.14060 21910 ft 342 kts 272°
2026-05-05 05:46 39.99293 -106.17159 21912 ft 341 kts 272°
2026-05-05 05:46 39.99405 -106.20240 21505 ft 341 kts 272°
2026-05-05 05:46 39.99518 -106.23324 21108 ft 340 kts 272°
2026-05-05 05:46 39.99629 -106.26404 20713 ft 339 kts 273°
2026-05-05 05:47 39.99740 -106.29477 20261 ft 340 kts 273°
2026-05-05 05:47 39.99851 -106.32563 19859 ft 340 kts 273°
2026-05-05 05:47 39.99961 -106.35638 19459 ft 340 kts 273°
2026-05-05 05:47 40.00034 -106.38715 19065 ft 339 kts 268°
2026-05-05 05:48 39.99500 -106.41702 18663 ft 341 kts 247°
2026-05-05 05:48 39.98128 -106.44271 18221 ft 346 kts 226°
2026-05-05 05:48 39.96108 -106.45984 17717 ft 349 kts 204°
2026-05-05 05:48 39.93830 -106.46979 17252 ft 341 kts 201°
2026-05-05 05:49 39.91595 -106.47910 16824 ft 333 kts 201°
2026-05-05 05:49 39.89414 -106.48817 16415 ft 325 kts 201°
2026-05-05 05:49 39.87286 -106.49705 16011 ft 318 kts 202°
2026-05-05 05:49 39.85211 -106.50576 15641 ft 309 kts 202°
2026-05-05 05:50 39.83192 -106.51425 15282 ft 302 kts 202°
2026-05-05 05:50 39.81201 -106.52264 14927 ft 300 kts 202°
2026-05-05 05:50 39.79227 -106.53094 14576 ft 297 kts 202°
2026-05-05 05:50 39.77263 -106.53917 14217 ft 296 kts 202°
2026-05-05 05:51 39.75309 -106.54737 13856 ft 295 kts 202°
2026-05-05 05:51 39.73357 -106.55557 13467 ft 295 kts 202°
2026-05-05 05:51 39.71415 -106.56397 13099 ft 292 kts 206°
2026-05-05 05:51 39.69808 -106.57848 12822 ft 273 kts 233°
2026-05-05 05:52 39.68965 -106.59971 12307 ft 265 kts 261°
2026-05-05 05:52 39.68730 -106.62301 11838 ft 255 kts 263°
2026-05-05 05:52 39.68441 -106.64535 11435 ft 249 kts 260°
2026-05-05 05:52 39.68102 -106.66720 11040 ft 245 kts 259°
2026-05-05 05:53 39.67763 -106.68872 10639 ft 242 kts 258°
2026-05-05 05:53 39.67433 -106.70981 10283 ft 234 kts 258°
2026-05-05 05:53 39.67115 -106.73013 9890 ft 224 kts 258°
2026-05-05 05:53 39.66814 -106.74942 9507 ft 212 kts 258°
2026-05-05 05:54 39.66528 -106.76767 9170 ft 200 kts 258°
2026-05-05 05:54 39.66265 -106.78446 8834 ft 181 kts 258°
2026-05-05 05:54 39.66022 -106.79991 8541 ft 168 kts 258°
2026-05-05 05:54 39.65796 -106.81425 8280 ft 157 kts 258°
2026-05-05 05:55 39.65584 -106.82775 8033 ft 150 kts 257°
2026-05-05 05:55 39.65379 -106.84081 7796 ft 146 kts 256°
2026-05-05 05:55 39.65177 -106.85362 7563 ft 145 kts 256°
2026-05-05 05:55 39.64975 -106.86644 7326 ft 145 kts 256°
2026-05-05 05:56 39.64771 -106.87940 7129 ft 143 kts 258°
2026-05-05 05:56 39.64564 -106.89167 6866 ft 140 kts 258°
2026-05-05 05:56 39.64409 -106.90415 6607 ft 137 kts 262°
2026-05-05 05:56 39.64274 -106.91589 6516 ft 118 kts 263°
2026-05-05 05:57 39.64186 -106.92422 6488 ft 68 kts 262°
2026-05-05 05:57 39.64133 -106.92811 6482 ft 20 kts 236°
2026-05-05 05:57 39.64110 -106.92823 6465 ft 6 kts 148°
2026-05-05 05:57 39.64047 -106.92770 6475 ft 14 kts 147°
2026-05-05 05:58 39.64044 -106.92703 6483 ft 9 kts 77°
2026-05-05 05:58 39.64057 -106.92603 6487 ft 13 kts 83°
2026-05-05 05:58 39.64070 -106.92464 6489 ft 18 kts 82°
2026-05-05 05:58 39.64092 -106.92273 6491 ft 24 kts 82°
2026-05-05 05:59 39.64114 -106.92069 6502 ft 24 kts 82°
2026-05-05 05:59 39.64138 -106.91848 6515 ft 26 kts 81°
2026-05-05 05:59 39.64164 -106.91611 6525 ft 22 kts 88°
2026-05-05 05:59 39.64118 -106.91549 6527 ft 9 kts 169°
2026-05-05 06:00 39.64056 -106.91539 6528 ft 1 kts 172°
2026-05-05 06:00 39.64050 -106.91538 6527 ft 0 kts 172°